Regional Weather Roundup
Issued by NWS Jackson, KY

Home | Current Version | Previous Version | Graphics & Text | Print | Product List | Glossary On
Versions: 1 2 3 4 5 6 7 8 9 10 11 12 13 14 15 16 17 18 19 20 21 22 23 24 25 26 27 28 29 30 31 32 33 34 35 36 37 38 39 40 41 42 43 44 45 46 47 48 49 50
000
ASUS43 KJKL 211005
RWRJKL

EAST KENTUCKY HOURLY WEATHER ROUNDUP
NATIONAL WEATHER SERVICE JACKSON KY
600 AM EDT MON APR 21 2014

NOTE: "FAIR" INDICATES FEW OR NO CLOUDS BELOW 12,000 FEET WITH
NO SIGNIFICANT WEATHER AND/OR OBSTRUCTIONS TO VISIBILITY.

* THESE REPORTS ARE NOT UNDER NWS QUALITY CONTROL AND MAY NOT
  REPORT WEATHER SUCH AS PRECIPITATION AND FOG.

KYZ079-080-083-085-087-088-110-112-115-119-120-211100
...EASTERN KENTUCKY...

CITY           SKY/WX    TMP DP  RH WIND       PRES   REMARKS
JACKSON        PTCLDY    56  36  47 CALM      30.10F
LONDON         CLEAR     47  43  86 CALM      30.11S
SOMERSET*      CLEAR     45  43  93 CALM      30.12S
MONTICELLO*    CLEAR     44  41  89 CALM      30.13R
WILLIAMSBURG*  CLEAR     48  45  87 CALM      30.12S
MIDDLESBORO*   CLEAR     44  41  91 CALM      30.15S
HARLAN APT*    MOSUNNY   45  36  70 CALM      30.15R
BLACK MTN*       N/A     52  27  37 S9          N/A
PIKEVILLE APT* CLEAR     55  30  38 S5        30.11R
BIG SANDY*     SUNNY     57  31  37 CALM      30.10S
$$

KYZ035-036-041-042-044-050-067-078-099-211100
...CENTRAL KENTUCKY...

CITY           SKY/WX    TMP DP  RH WIND       PRES   REMARKS
MT STERLING*   PTCLDY    45  43  93 SW6       30.10S
FLEMING/MASON* PTCLDY    49  45  84 CALM      30.09S
DANVILLE*      CLEAR     46  43  87 CALM      30.10S
LEXINGTON      CLEAR     55  42  61 S5        30.09S
FRANKFORT      CLEAR     45  42  89 CALM      30.07F
$$

KYZ091>093-OHZ055-061-077-WVZ005-015-034-035-042-211100
...SOUTHERN OHIO/WEST VIRGINIA...

CITY           SKY/WX    TMP DP  RH WIND       PRES   REMARKS
COVINGTON      PTCLDY    51  43  74 CALM      30.07F
COLUMBUS       PTCLDY    48  40  73 CALM      30.06F
DAYTON         PTCLDY    52  39  61 CALM      30.08S
WILMINGTON     PTCLDY    47  41  80 CALM      30.07F
HUNTINGTON     CLEAR     46  37  71 CALM      30.08S
CHARLESTON     CLEAR     47  35  63 CALM      30.10S
PINEVILLE*     CLEAR     40  36  85 MISG      30.20S
BECKLEY        CLEAR     47  29  49 SE6       30.16S
BLUEFIELD      CLEAR     49  29  46 E3        30.17S
$$

VAZ002-007-008-TNZ017-027-036-066-071-211100
...SOUTHWEST VIRGINIA/EAST TENNESSEE...

CITY           SKY/WX    TMP DP  RH WIND       PRES   REMARKS
WISE*          PTCLDY    50  27  40 S5        30.17R
ABINGDON*      PTCLDY    47  29  50 E3        30.17R
BRISTOL        PTCLDY    41  31  67 CALM      30.17R
KNOXVILLE      PTCLDY    46  42  86 SE5       30.15R
OAK RIDGE      CLEAR     50  44  80 CALM      30.15S
CROSSVILLE     CLEAR     54  38  54 VRB5      30.16R
NASHVILLE      PTCLDY    52  47  83 CALM      30.10S
$$

...KEY TO REMARKS...
VSB - VISIBILITY IN MILES
WCI - WIND CHILL INDEX
HX  - HEAT INDEX

$$



USA.gov is the U.S. government's official web portal to all federal, state and local government web resources and services.